Weather reports worldwide

Advertisment
Solenzara, France (7765): temperature & dewpoint: 05.12.2019 09:00:00 - 11.12.2019 09:00:00 (CET)Solenzara, France (7765): temperature 5cm: 05.12.2019 09:00:00 - 11.12.2019 09:00:00 (CET)Solenzara, France (7765): temperature -20cm: 05.12.2019 09:00:00 - 11.12.2019 09:00:00 (CET)Solenzara, France (7765): wind speed & gusts: 05.12.2019 09:00:00 - 11.12.2019 09:00:00 (CET)Solenzara, France (7765): wind direction: 05.12.2019 09:00:00 - 11.12.2019 09:00:00 (CET)Solenzara, France (7765): reduced air pressure: 05.12.2019 09:00:00 - 11.12.2019 09:00:00 (CET)Solenzara, France (7765): visibility: 05.12.2019 09:00:00 - 11.12.2019 09:00:00 (CET)Solenzara, France (7765): sunshine duration: 05.12.2019 09:00:00 - 11.12.2019 09:00:00 (CET)Solenzara, France (7765): precipitation: 05.12.2019 09:00:00 - 11.12.2019 09:00:00 (CET)
Date & Time tt [°C] td [°C] tt 5cm [°C] tt -20cm [°C] ff [km/h] ff [kn] fx [km/h] fx [kn] dd ppp [hPa] vv [km] sd [min] rr [mm]
11.12.2019 09:00:00 9,0 0,9 5,0 12,7 9 5 20 11 W 1017,4 53 55 0,0
11.12.2019 08:00:00 7,1 0,7 4,9 12,7 12 6 19 11 W 1017,5 60 5 0,0
11.12.2019 07:00:00 7,2 0,8 4,5 12,8 12 6 22 12 W 1017,8 60 0 0,0
11.12.2019 06:00:00 7,5 1,1 5,6 12,8 10 5 21 12 W 1017,8 60 0 0,0
11.12.2019 05:00:00 10,6 0,6 5,9 12,9 15 8 23 13 NNW 1018,1 60 0 0,0
11.12.2019 04:00:00 9,2 1,1 6,5 12,9 9 5 24 13 NW 1018,4 60 0 0,0
11.12.2019 03:00:00 11,0 0,7 8,9 13,0 16 9 28 15 NNW 1018,7 60 0 0,0
11.12.2019 02:00:00 11,3 0,1 7,3 13,0 12 6 24 13 NNW 1018,9 60 0 0,0
11.12.2019 01:00:00 10,4 0,1 8,6 13,1 11 6 32 17 NNW 1019,0 60 0 0,0
11.12.2019 00:00:00 12,0 0,4 10,5 13,1 16 9 33 18 NNW 1019,3 60 0 0,0
10.12.2019 23:00:00 12,3 1,3 10,3 13,1 19 10 33 18 N 1019,1 60 0 0,0
10.12.2019 22:00:00 11,4 2,1 9,4 13,2 16 9 29 15 N 1018,8 60 0 0,0
10.12.2019 21:00:00 11,8 2,0 10,5 13,2 16 9 27 15 NNW 1018,5 60 0 0,0
10.12.2019 20:00:00 12,6 2,2 11,1 13,2 17 9 33 18 NNW 1018,0 60 0 0,0
10.12.2019 19:00:00 12,7 2,0 10,6 13,2 19 10 32 18 NNW 1017,5 60 0 0,0
10.12.2019 18:00:00 12,2 2,3 10,7 13,2 16 9 35 19 NNW 1016,8 60 0 0,0
10.12.2019 17:00:00 12,9 4,8 12,2 13,2 25 14 46 25 NNE 1016,3 60 9 0,0
10.12.2019 16:00:00 14,3 4,3 13,6 13,1 32 17 50 27 NNE 1015,6 31 60 0,0
10.12.2019 15:00:00 15,5 2,6 14,8 13,0 31 17 51 28 N 1015,1 25 60 0,0
10.12.2019 14:00:00 16,3 1,6 15,6 13,0 31 17 47 25 N 1015,0 24 60 0,0
10.12.2019 13:00:00 16,5 3,2 16,0 13,0 30 16 48 26 NNE 1014,9 20 60 0,0
10.12.2019 12:00:00 16,6 2,2 15,7 13,0 36 20 52 28 NNE 1014,7 20 60 0,0
10.12.2019 11:00:00 16,5 4,8 14,7 13,0 26 14 45 24 N 1014,4 31 60 0,0
10.12.2019 10:00:00 15,5 4,5 12,9 13,0 24 13 42 23 N 1013,3 34 60 0,0
10.12.2019 09:00:00 14,0 4,6 10,9 13,1 24 13 36 20 N 1012,4 32 46 0,0
10.12.2019 08:00:00 12,4 3,6 10,1 13,2 21 11 38 21 N 1011,6 59 0 0,0
10.12.2019 07:00:00 11,6 2,3 8,0 13,3 18 10 31 17 N 1010,6 60 0 0,0
10.12.2019 06:00:00 10,6 1,9 3,9 13,3 12 7 20 11 NNW 1009,7 60 0 0,0
10.12.2019 05:00:00 7,5 2,0 3,9 13,4 8 4 14 8 WNW 1009,2 60 0 0,0
10.12.2019 04:00:00 8,2 2,2 5,0 13,5 8 4 16 8 W 1009,0 60 0 0,0
10.12.2019 03:00:00 8,8 2,4 5,5 13,5 9 5 18 10 W 1008,6 60 0 0,0
10.12.2019 02:00:00 9,5 2,8 5,6 13,6 11 6 17 9 W 1008,0 60 0 0,0
10.12.2019 01:00:00 9,9 3,6 5,4 13,7 9 5 18 10 W 1007,8 60 0 0,0
10.12.2019 00:00:00 9,5 2,8 5,8 13,7 8 4 15 8 NNW 1007,9 60 0 0,0
09.12.2019 23:00:00 10,2 4,3 7,2 13,8 6 3 25 13 W 1007,7 60 0 0,0
09.12.2019 22:00:00 10,6 4,3 8,1 13,8 9 5 22 12 WNW 1008,0 60 0 0,0
09.12.2019 21:00:00 10,8 6,2 9,3 13,8 8 5 22 12 W 1008,7 60 0 0,0
09.12.2019 20:00:00 12,0 5,8 9,8 13,8 13 7 25 13 WSW 1008,7 60 0 0,0
09.12.2019 19:00:00 12,1 6,4 9,9 13,8 8 5 41 22 SSW 1008,9 57 0 0,0
09.12.2019 18:00:00 14,3 4,3 11,1 13,8 13 7 52 28 SSW 1008,3 60 0 0,0
09.12.2019 17:00:00 14,4 5,5 11,7 13,8 25 13 62 33 WNW 1007,1 16 0 0,0
09.12.2019 16:00:00 16,2 3,3 13,7 13,7 28 15 67 36 W 1007,7 36 14 0,0
09.12.2019 15:00:00 16,8 2,4 14,6 13,7 21 12 57 31 W 1008,1 60 11 0,0
09.12.2019 14:00:00 17,0 2,2 15,5 13,6 25 14 51 27 NW 1008,5 35 36 0,0
09.12.2019 13:00:00 18,0 1,9 15,3 13,5 24 13 59 32 W 1009,0 39 55 0,0
09.12.2019 12:00:00 17,9 1,4 15,4 13,5 31 17 73 39 WNW 1009,2 20 60 0,0
09.12.2019 11:00:00 17,9 1,8 13,2 13,5 28 15 48 26 NW 1011,3 46 60 0,0
09.12.2019 10:00:00 16,5 4,2 11,4 13,6 18 10 36 20 NW 1011,0 60 3 0,0
09.12.2019 09:00:00 16,6 6,1 9,2 13,6 18 10 40 21 W 1010,9 60 0 0,0
09.12.2019 08:00:00 10,7 8,8 9,1 13,7 9 5 23 12 N 1010,7 52 9 0,0
09.12.2019 07:00:00 11,0 8,6 8,1 13,8 8 4 15 8 WSW 1011,0 60 0 0,0
09.12.2019 06:00:00 10,6 8,4 7,9 13,9 7 4 24 13 SW 1011,8 60 0 0,0
09.12.2019 05:00:00 9,3 8,1 7,0 13,9 10 5 13 7 W 1013,3 46 0 0,0
09.12.2019 04:00:00 9,1 8,0 6,7 14,0 9 5 17 9 WSW 1014,3 51 0 0,0
09.12.2019 03:00:00 8,6 7,4 7,1 14,1 4 2 16 9 NNW 1015,2 30 0 0,0
09.12.2019 02:00:00 9,5 7,8 8,8 14,1 10 5 16 8 W 1015,2 54 0 0,0
09.12.2019 01:00:00 9,8 7,6 7,6 14,2 9 5 16 8 W 1015,9 57 0 0,0
09.12.2019 00:00:00 10,0 7,8 8,7 14,2 8 4 21 11 W 1016,6 58 0 0,0
08.12.2019 23:00:00 10,2 7,8 8,8 14,3 10 6 19 10 W 1017,0 60 0 0,0
08.12.2019 22:00:00 10,3 8,1 8,8 14,3 9 5 21 11 W 1017,5 58 0 0,0
08.12.2019 21:00:00 10,9 8,3 9,8 14,3 11 6 19 10 W 1017,7 59 0 0,0
08.12.2019 20:00:00 10,9 8,5 10,0 14,4 11 6 19 10 W 1018,1 57 0 0,0
08.12.2019 19:00:00 11,3 8,9 10,5 14,3 11 6 19 11 W 1018,3 52 0 0,0
08.12.2019 18:00:00 11,7 9,3 11,0 14,3 9 5 16 9 W 1018,4 57 0 0,0
08.12.2019 17:00:00 12,6 10,3 10,8 14,2 8 5 11 6 W 1018,5 36 10 0,0
08.12.2019 16:00:00 15,7 11,3 14,2 14,1 3 1 6 4 SSE 1018,5 20 60 0,0
08.12.2019 15:00:00 16,2 11,4 16,7 14,0 5 3 14 7 SE 1018,7 20 60 0,0
08.12.2019 14:00:00 16,4 11,5 17,9 13,8 9 5 17 9 SSE 1018,7 60 60 0,0
08.12.2019 13:00:00 16,6 11,1 17,2 13,7 11 6 15 8 S 1019,2 60 60 0,0
08.12.2019 12:00:00 17,4 10,7 15,6 13,7 6 4 10 5 SE 1019,9 60 60 0,0
08.12.2019 11:00:00 17,3 11,3 13,2 13,7 4 2 9 5 SSE 1021,0 50 60 0,0
08.12.2019 10:00:00 13,9 9,1 9,8 13,7 6 3 14 7 W 1020,8 60 34 0,0
08.12.2019 09:00:00 11,2 8,1 9,2 13,8 9 5 20 11 W 1020,6 60 30 0,0
08.12.2019 08:00:00 10,4 7,5 9,0 13,9 13 7 22 12 W 1020,5 60 3 0,0
08.12.2019 07:00:00 10,1 7,2 8,8 13,9 12 7 22 12 W 1020,3 60 0 0,0
08.12.2019 06:00:00 9,9 7,0 8,7 14,0 12 6 21 11 W 1019,9 60 0 0,0
08.12.2019 05:00:00 10,0 7,4 8,8 14,1 11 6 19 11 W 1019,8 60 0 0,0
08.12.2019 04:00:00 9,8 7,2 8,8 14,1 11 6 19 11 W 1019,8 60 0 0,0
08.12.2019 03:00:00 10,2 7,1 8,8 14,2 11 6 19 11 W 1020,2 60 0 0,0
08.12.2019 02:00:00 10,3 7,5 8,2 14,2 11 6 19 11 W 1020,2 60 0 0,0
08.12.2019 01:00:00 10,1 7,9 8,4 14,3 8 4 19 10 NW 1020,5 58 0 0,0
08.12.2019 00:00:00 10,6 7,8 9,5 14,3 11 6 20 11 W 1020,7 60 0 0,0
07.12.2019 23:00:00 10,6 8,2 9,7 14,4 11 6 20 11 W 1021,0 60 0 0,0
07.12.2019 22:00:00 10,8 8,6 10,0 14,4 10 5 16 9 W 1020,4 59 0 0,0
07.12.2019 21:00:00 10,8 8,9 10,0 14,4 10 6 16 9 W 1020,4 57 0 0,0
07.12.2019 20:00:00 11,0 9,1 9,2 14,4 9 5 15 8 W 1020,4 41 0 0,2
07.12.2019 19:00:00 11,4 9,3 9,7 14,4 8 4 15 8 W 1019,9 33 0 0,0
07.12.2019 18:00:00 12,1 10,0 10,6 14,4 9 5 16 9 W 1019,4 50 0 0,0
07.12.2019 17:00:00 13,0 10,7 10,6 14,3 8 4 11 6 W 1019,2 17 9 0,0
07.12.2019 16:00:00 16,2 12,4 13,6 14,2 4 2 6 4 SSW 1019,0 52 60 0,0
07.12.2019 15:00:00 16,3 12,5 14,7 14,1 3 2 10 5 SE 1018,9 44 60 0,0
07.12.2019 14:00:00 16,5 12,6 15,0 13,9 4 2 11 6 ESE 1019,2 40 60 0,0
07.12.2019 13:00:00 17,1 12,2 14,1 13,8 6 3 11 6 ESE 1019,7 47 60 0,0
07.12.2019 12:00:00 16,9 12,2 14,4 13,8 0 0 9 5 N 1020,0 19 60 0,0
07.12.2019 11:00:00 17,3 11,8 13,9 13,8 0 0 10 6 N 1020,2 20 60 0,0
07.12.2019 10:00:00 15,0 11,0 10,7 13,8 3 1 14 8 ENE 1020,3 52 60 0,0
07.12.2019 09:00:00 12,0 9,7 8,2 13,9 6 4 10 5 WNW 1020,3 54 60 0,0
07.12.2019 08:00:00 9,8 8,6 8,1 13,9 4 2 17 9 NNW 1020,1 33 7 0,0
07.12.2019 07:00:00 10,4 8,7 9,6 13,9 10 5 18 10 W 1019,7 60 0 0,0
07.12.2019 06:00:00 10,4 9,0 8,4 14,0 10 5 16 8 W 1019,8 55 0 0,0
07.12.2019 05:00:00 10,6 9,0 9,0 14,1 8 5 16 8 W 1019,8 42 0 0,0
07.12.2019 04:00:00 10,5 8,9 9,1 14,1 2 1 15 8 W 1020,3 45 0 0,0
07.12.2019 03:00:00 11,7 9,4 10,3 14,1 10 5 18 10 W 1020,5 58 0 0,0
07.12.2019 02:00:00 11,0 8,9 10,1 14,2 10 6 17 9 W 1020,4 53 0 0,0
07.12.2019 01:00:00 10,7 8,8 10,1 14,2 10 5 18 10 W 1020,6 57 0 0,0
07.12.2019 00:00:00 11,0 9,1 9,4 14,2 9 5 17 9 W 1021,3 54 0 0,0
06.12.2019 23:00:00 11,3 9,2 10,4 14,2 10 5 16 9 W 1021,3 56 0 0,0
06.12.2019 22:00:00 11,6 9,5 10,8 14,2 10 5 17 9 W 1021,3 52 0 0,0
06.12.2019 21:00:00 12,0 9,9 11,1 14,2 9 5 17 9 W 1021,2 49 0 0,0
06.12.2019 20:00:00 12,4 10,3 10,6 14,2 8 5 14 8 W 1021,2 47 0 0,0
06.12.2019 19:00:00 12,9 10,8 11,2 14,2 9 5 15 8 W 1021,0 49 0 0,0
06.12.2019 18:00:00 13,5 11,4 11,2 14,2 8 4 12 6 W 1020,7 44 0 0,0
06.12.2019 17:00:00 14,3 12,3 12,0 14,1 6 4 12 7 WNW 1020,3 15 0 0,0
06.12.2019 16:00:00 15,0 13,0 13,9 14,0 8 4 12 6 N 1020,4 26 1 0,0
06.12.2019 15:00:00 15,5 13,5 14,3 13,9 5 3 15 8 NNE 1020,5 20 19 0,0
06.12.2019 14:00:00 16,6 13,1 14,7 13,8 8 4 15 8 NNE 1020,8 18 32 0,0
06.12.2019 13:00:00 15,5 13,0 14,5 13,8 8 4 12 7 NE 1021,5 19 19 0,0
06.12.2019 12:00:00 15,8 12,4 14,2 13,7 6 3 12 7 NNE 1022,3 19 60 0,0
06.12.2019 11:00:00 15,7 12,6 13,3 13,7 3 1 8 4 ENE 1022,9 19 60 0,0
06.12.2019 10:00:00 14,3 11,8 11,8 13,7 2 1 6 3 NNE 1023,2 18 52 0,0
06.12.2019 09:00:00 12,6 10,7 10,8 13,7 4 2 14 8 NNW 1023,0 2,3 21 0,0
06.12.2019 08:00:00 11,1 9,4 9,4 13,8 9 5 14 7 W 1022,7 52 0 0,0
06.12.2019 07:00:00 11,1 9,2 10,4 13,8 9 5 15 8 W 1022,4 50 0 0,0
06.12.2019 06:00:00 11,1 9,0 9,1 13,8 9 5 18 10 W 1022,3 54 0 0,0
06.12.2019 05:00:00 10,6 8,9 9,2 13,9 9 5 16 9 WNW 1022,1 43 0 0,0
06.12.2019 04:00:00 11,0 9,3 9,4 13,9 8 5 17 9 W 1022,2 41 0 0,0
06.12.2019 03:00:00 11,3 9,6 9,2 13,9 10 5 18 10 W 1022,4 42 0 0,0
06.12.2019 02:00:00 11,0 9,4 9,6 13,9 4 2 16 8 NNW 1022,5 25 0 0,0
06.12.2019 01:00:00 11,5 9,4 10,2 14,0 9 5 19 10 W 1022,6 43 0 0,0
06.12.2019 00:00:00 10,9 9,0 10,1 14,0 10 5 19 10 W 1023,0 41 0 0,0
05.12.2019 23:00:00 10,8 9,1 10,1 14,0 10 6 19 11 W 1023,0 37 0 0,0
05.12.2019 22:00:00 10,9 9,3 10,4 14,0 11 6 17 9 W 1022,8 36 0 0,0
05.12.2019 21:00:00 10,9 9,5 10,0 14,0 10 6 16 8 W 1022,6 32 0 0,0
05.12.2019 20:00:00 10,9 9,7 10,2 14,0 10 6 14 7 W 1022,6 30 0 0,0
05.12.2019 19:00:00 11,3 10,0 9,6 14,0 8 5 13 7 W 1022,3 28 0 0,0
05.12.2019 18:00:00 12,5 11,2 11,4 14,0 5 3 12 7 NW 1021,8 32 0 0,0
05.12.2019 17:00:00 13,0 11,4 12,2 14,0 9 5 14 8 N 1021,5 51 0 0,0
05.12.2019 16:00:00 13,2 11,4 12,0 14,0 11 6 21 11 NNW 1021,2 57 0 0,0
05.12.2019 15:00:00 12,7 11,3 11,6 14,0 14 8 21 11 N 1021,1 44 0 1,2
05.12.2019 14:00:00 12,4 10,5 11,6 14,0 11 6 20 11 NNW 1021,0 17 0 0,4
05.12.2019 13:00:00 12,3 10,9 11,8 14,0 8 4 15 8 NW 1021,3 18 0 0,8
05.12.2019 12:00:00 12,5 11,4 11,7 14,0 8 4 15 8 N 1021,6 2,6 0 1,0
05.12.2019 11:00:00 12,3 10,7 11,8 14,0 7 4 16 9 NW 1021,8 16 0 0,8
05.12.2019 10:00:00 12,2 10,9 11,3 14,0 8 4 11 6 NW 1021,5 9 0 0,6
05.12.2019 09:00:00 11,8 10,2 10,9 14,0 6 3 14 8 WNW 1020,5 19 0 0,0

tt = temperature
td = dewpoint
tt 5cm = temperature 5cm
tt -20cm = temperature -20cm
ff = wind speed
fx = gusts
dd = wind direction
ppp = reduced air pressure
vv = visibility
sd = sunshine duration
rr = precipitation

Next stations